FW4012 Weather Reports


Display with metric or nautical units.
time (UTC)temp
F
wind
direction
speed
MPH
gust
MPH
rain 1hr
in
rain 24hr
in
rain mn
in
humidity
%
barometer
mb
20260906112239 85 229 4.0 7.0 0.00 0.00 0.00 56 1022.2
20260906111806 85 273 4.0 10.0 0.00 0.00 0.00 57 1022.2
20260906111231 86 156 3.0 10.0 0.00 0.00 0.00 56 1022.2
20260906110727 85 138 3.0 7.0 0.00 0.00 0.00 57 1022.2
20260906110237 84 257 3.0 8.0 0.00 0.00 0.00 56 1022.3
20260906105741 84 97 5.0 8.0 0.00 0.00 0.00 55 1022.3
20260906105233 84 119 2.0 6.0 0.00 0.00 0.00 58 1022.3
20260906104725 84 77 3.0 6.0 0.00 0.00 0.00 57 1022.3
20260906104306 84 225 3.0 7.0 0.00 0.00 0.00 56 1022.3
20260906103753 85 165 4.0 7.0 0.00 0.00 0.00 60 1022.3
20260906103229 84 148 1.0 3.0 0.00 0.00 0.00 57 1022.4
20260906102737 83 167 0.0 4.0 0.00 0.00 0.00 56 1022.4
20260906102238 84 179 2.0 3.0 0.00 0.00 0.00 58 1022.4
20260906101724 83 99 2.0 3.0 0.00 0.00 0.00 56 1022.4
20260906101240 83 97 1.0 3.0 0.00 0.00 0.00 59 1022.5
20260906100744 82 360 2.0 4.0 0.00 0.00 0.00 59 1022.6
20260906100237 82 360 2.0 4.0 0.00 0.00 0.00 57 1022.6
20260906095744 82 105 2.0 4.0 0.00 0.00 0.00 56 1022.7
20260906095243 83 360 1.0 6.0 0.00 0.00 0.00 58 1022.7
20260906094738 83 147 3.0 7.0 0.00 0.00 0.00 56 1022.7
20260906094249 83 215 5.0 7.0 0.00 0.00 0.00 58 1022.6
20260906093741 82 206 2.0 6.0 0.00 0.00 0.00 58 1022.6
20260906093247 82 164 2.0 6.0 0.00 0.00 0.00 56 1022.7
20260906092737 83 206 3.0 6.0 0.00 0.00 0.00 56 1022.7
20260906092237 82 207 4.0 6.0 0.00 0.00 0.00 55 1022.7
20260906091746 82 198 3.0 6.0 0.00 0.00 0.00 55 1022.7
20260906091243 82 16 4.0 6.0 0.00 0.00 0.00 54 1022.7
20260906090746 82 195 3.0 6.0 0.00 0.00 0.00 54 1022.8
20260906090237 81 360 4.0 9.0 0.00 0.00 0.00 53 1022.7
20260906085746 81 360 4.0 9.0 0.00 0.00 0.00 53 1022.7
20260906085243 81 360 4.0 8.0 0.00 0.00 0.00 55 1022.7
20260906084731 80 5 4.0 9.0 0.00 0.00 0.00 54 1022.7
20260906084233 81 15 5.0 9.0 0.00 0.00 0.00 54 1022.7
20260906083730 80 5 5.0 10.0 0.00 0.00 0.00 54 1022.7
20260906083259 80 184 5.0 10.0 0.00 0.00 0.00 55 1022.9
20260906082751 80 14 4.0 8.0 0.00 0.00 0.00 57 1022.7
20260906082239 79 360 4.0 8.0 0.00 0.00 0.00 56 1022.7
20260906081745 79 190 5.0 7.0 0.00 0.00 0.00 57 1022.7
20260906081235 78 360 5.0 6.0 0.00 0.00 0.00 58 1022.7
20260906080745 78 360 3.0 6.0 0.00 0.00 0.00 58 1022.6
20260906080234 78 360 4.0 6.0 0.00 0.00 0.00 58 1022.6
20260906075749 77 360 2.0 5.0 0.00 0.00 0.00 59 1022.6
20260906075239 77 360 2.0 5.0 0.00 0.00 0.00 59 1022.5
20260906074746 77 360 3.0 5.0 0.00 0.00 0.00 60 1022.4
20260906074237 76 360 2.0 4.0 0.00 0.00 0.00 60 1022.5
20260906073749 76 360 3.0 4.0 0.00 0.00 0.00 61 1022.4
20260906073252 75 331 2.0 4.0 0.00 0.00 0.00 61 1022.3
20260906072729 75 344 3.0 5.0 0.00 0.00 0.00 62 1022.3
20260906072237 75 322 2.0 5.0 0.00 0.00 0.00 62 1022.4
20260906071736 75 317 3.0 5.0 0.00 0.00 0.00 63 1022.3
20260906071246 75 307 3.0 5.0 0.00 0.00 0.00 64 1022.4
20260906070734 74 355 3.0 5.0 0.00 0.00 0.00 67 1022.3
20260906070228 74 312 4.0 5.0 0.00 0.00 0.00 65 1022.2
20260906065737 73 325 3.0 5.0 0.00 0.00 0.00 67 1022.2
20260906065237 73 331 3.0 5.0 0.00 0.00 0.00 67 1022.1
20260906064745 72 290 3.0 5.0 0.00 0.00 0.00 69 1022.0
20260906064235 72 292 2.0 5.0 0.00 0.00 0.00 73 1022.1
20260906063750 71 311 1.0 4.0 0.00 0.00 0.00 73 1022.1
20260906063301 71 323 2.0 4.0 0.00 0.00 0.00 73 1022.0
20260906062728 70 322 3.0 4.0 0.00 0.00 0.00 73 1022.0
20260906062241 70 329 3.0 4.0 0.00 0.00 0.00 75 1022.0
20260906061742 70 325 3.0 4.0 0.00 0.00 0.00 75 1021.9
20260906061240 70 319 2.0 4.0 0.00 0.00 0.00 74 1021.7
20260906060729 70 313 0.0 2.0 0.00 0.00 0.00 74 1021.8
20260906060236 70 313 0.0 2.0 0.00 0.00 0.00 76 1021.7
20260906055738 69 313 0.0 3.0 0.00 0.00 0.00 77 1021.5
20260906055223 68 101 0.0 3.0 0.00 0.00 0.00 76 1021.5
20260906054740 67 113 0.0 3.0 0.00 0.00 0.00 77 1021.4
20260906054249 66 311 1.0 3.0 0.00 0.00 0.00 77 1021.3
20260906053741 66 312 0.0 3.0 0.00 0.00 0.00 77 1021.2
20260906053248 66 309 0.0 4.0 0.00 0.00 0.00 77 1021.3
20260906052742 66 309 1.0 4.0 0.00 0.00 0.00 77 1021.2
20260906052249 66 309 1.0 3.0 0.00 0.00 0.00 77 1021.0
20260906051740 66 360 1.0 3.0 0.00 0.00 0.00 77 1021.0
20260906051251 66 113 0.0 3.0 0.00 0.00 0.00 76 1020.9
20260906050741 66 115 0.0 3.0 0.00 0.00 0.00 75 1020.8
20260906050244 66 323 3.0 3.0 0.00 0.00 0.00 74 1020.8
20260906045727 67 324 0.0 3.0 0.00 0.00 0.00 74 1020.7
20260906045241 67 323 1.0 3.0 0.00 0.00 0.00 73 1020.6
20260906044748 67 324 0.0 3.0 0.00 0.00 0.00 73 1020.6
20260906044238 67 324 2.0 3.0 0.00 0.00 0.00 72 1020.4
20260906043738 67 324 1.0 3.0 0.00 0.00 0.00 72 1020.5
20260906043248 66 324 2.0 8.0 0.00 0.00 0.00 73 1020.4
20260906042742 65 16 5.0 8.0 0.00 0.00 0.00 74 1020.4
20260906042250 65 77 4.0 6.0 0.00 0.00 0.00 78 1020.5
20260906041728 65 17 1.0 6.0 0.00 0.00 0.00 80 1020.5
20260906041309 64 355 4.0 6.0 0.00 0.00 0.00 79 1020.4
20260906040724 64 28 0.0 4.0 0.00 0.00 0.00 80 1020.4
20260906040302 64 28 1.0 3.0 0.00 0.00 0.00 80 1020.3
20260906035746 64 133 0.0 0.0 0.00 0.00 0.00 80 1020.3
20260906035241 64 133 0.0 2.0 0.00 0.00 0.00 79 1020.4
20260906034750 64 133 0.0 2.0 0.00 0.00 0.00 79 1020.4
20260906034238 64 134 1.0 2.0 0.00 0.00 0.00 79 1020.4
20260906033737 64 132 0.0 1.0 0.00 0.00 0.00 79 1020.4
20260906033236 64 132 0.0 2.0 0.00 0.00 0.00 79 1020.2
20260906032725 65 132 1.0 2.0 0.00 0.00 0.00 78 1020.2
20260906032225 65 133 1.0 2.0 0.00 0.00 0.00 78 1020.3
20260906031742 65 133 1.0 2.0 0.00 0.00 0.00 77 1020.2
20260906031310 65 133 0.0 3.0 0.00 0.00 0.00 77 1020.3
20260906030740 65 129 1.0 4.0 0.00 0.00 0.00 77 1020.3
20260906030240 65 336 0.0 5.0 0.00 0.00 0.00 77 1020.2
20260906025749 65 309 3.0 5.0 0.00 0.00 0.00 78 1020.1
20260906025239 65 305 0.0 3.0 0.00 0.00 0.00 78 1020.1
20260906024739 65 131 0.0 4.0 0.00 0.00 0.00 78 1020.1
20260906024251 65 130 0.0 4.0 0.00 0.00 0.00 77 1020.1
20260906023737 65 305 0.0 4.0 0.00 0.00 0.00 77 1020.0
20260906023235 65 295 2.0 4.0 0.00 0.00 0.00 77 1019.9
20260906022728 65 284 1.0 4.0 0.00 0.00 0.00 77 1020.0
20260906022232 65 222 0.0 0.0 0.00 0.00 0.00 77 1020.0
20260906021731 65 222 0.0 2.0 0.00 0.00 0.00 77 1019.9
20260906021228 65 222 1.0 3.0 0.00 0.00 0.00 76 1019.9
20260906020737 65 222 1.0 3.0 0.00 0.00 0.00 76 1019.8
20260906020237 66 165 1.0 3.0 0.00 0.00 0.00 76 1019.7
20260906015747 66 248 0.0 2.0 0.00 0.00 0.00 75 1019.6
20260906015258 66 248 1.0 2.0 0.00 0.00 0.00 75 1019.7
20260906014742 66 131 0.0 3.0 0.00 0.00 0.00 75 1019.7
20260906014224 66 132 0.0 4.0 0.00 0.00 0.00 74 1019.6
20260906013739 67 309 1.0 4.0 0.00 0.00 0.00 73 1019.6
20260906013238 67 309 0.0 0.0 0.00 0.00 0.00 72 1019.6
20260906012734 67 309 0.0 0.0 0.00 0.00 0.00 71 1019.5
20260906012242 67 309 0.0 0.0 0.00 0.00 0.00 71 1019.5
20260906011734 68 309 0.0 0.0 0.00 0.00 0.00 70 1019.5
20260906011253 69 309 0.0 2.0 0.00 0.00 0.00 69 1019.5
20260906010756 70 309 1.0 2.0 0.00 0.00 0.00 66 1019.5
20260906010248 71 309 0.0 3.0 0.00 0.00 0.00 64 1019.5
20260906005742 72 309 1.0 4.0 0.00 0.00 0.00 61 1019.4
20260906004736 73 355 0.0 3.0 0.00 0.00 0.00 59 1019.3
20260906004242 73 355 1.0 3.0 0.00 0.00 0.00 56 1019.4
20260906003803 73 5 2.0 4.0 0.00 0.00 0.00 55 1019.2
20260906003240 73 360 1.0 7.0 0.00 0.00 0.00 57 1019.3
20260906002739 71 118 3.0 7.0 0.00 0.00 0.00 59 1019.2
20260906002225 69 36 3.0 5.0 0.00 0.00 0.00 65 1019.2
20260906001741 68 360 2.0 5.0 0.00 0.00 0.00 71 1019.3
20260906001225 68 344 0.0 0.0 0.00 0.00 0.00 70 1019.3
20260906000732 68 344 0.0 3.0 0.00 0.00 0.00 71 1019.2
20260906000304 68 344 0.0 4.0 0.00 0.00 0.00 70 1019.2
20260905235723 68 332 3.0 4.0 0.00 0.00 0.00 70 1019.1
20260905235239 69 5 3.0 4.0 0.00 0.00 0.00 70 1019.1
20260905234751 69 355 2.0 4.0 0.00 0.00 0.00 70 1019.1
20260905234237 69 19 3.0 4.0 0.00 0.00 0.00 68 1019.1
20260905233739 70 342 2.0 5.0 0.00 0.00 0.00 67 1019.1
20260905233250 71 355 2.0 5.0 0.00 0.00 0.00 66 1019.0
20260905232749 71 334 4.0 5.0 0.00 0.00 0.00 64 1019.0
20260905232225 72 5 3.0 4.0 0.00 0.00 0.00 63 1019.0
20260905231737 73 355 2.0 11.0 0.00 0.00 0.00 61 1019.0
20260905231235 73 331 3.0 11.0 0.00 0.00 0.00 59 1019.0
20260905230725 73 360 3.0 6.0 0.00 0.00 0.00 59 1018.9
20260905230229 72 26 4.0 8.0 0.00 0.00 0.00 59 1018.9
20260905225730 72 344 5.0 8.0 0.00 0.00 0.00 60 1018.9
20260905225223 72 334 4.0 8.0 0.00 0.00 0.00 62 1018.9
20260905224746 71 344 5.0 6.0 0.00 0.00 0.00 63 1018.8
20260905224251 71 343 4.0 6.0 0.00 0.00 0.00 65 1018.8
20260905223800 70 348 4.0 6.0 0.00 0.00 0.00 66 1018.8
20260905223223 70 344 4.0 5.0 0.00 0.00 0.00 68 1018.7
20260905222747 70 333 4.0 6.0 0.00 0.00 0.00 69 1018.7
20260905222226 70 342 5.0 6.0 0.00 0.00 0.00 71 1018.7
20260905221738 70 329 4.0 5.0 0.00 0.00 0.00 72 1018.6
20260905221230 70 320 4.0 5.0 0.00 0.00 0.00 73 1018.6
20260905220803 70 347 3.0 4.0 0.00 0.00 0.00 74 1018.7
20260905220241 70 355 2.0 3.0 0.00 0.00 0.00 75 1018.6
20260905215741 69 355 2.0 3.0 0.00 0.00 0.00 75 1018.6
20260905215254 69 355 2.0 3.0 0.00 0.00 0.00 74 1018.6
20260905214733 69 342 2.0 3.0 0.00 0.00 0.00 75 1018.6
20260905214224 69 360 1.0 3.0 0.00 0.00 0.00 75 1018.6
20260905213751 69 139 2.0 3.0 0.00 0.00 0.00 76 1018.5
20260905213302 69 130 1.0 3.0 0.00 0.00 0.00 77 1018.4
20260905212740 69 117 2.0 3.0 0.00 0.00 0.00 77 1018.5
20260905212246 69 123 1.0 4.0 0.00 0.00 0.00 77 1018.5
20260905211742 69 120 3.0 4.0 0.00 0.00 0.00 76 1018.3
20260905211249 69 360 2.0 2.0 0.00 0.00 0.00 76 1018.3
20260905210727 70 327 1.0 2.0 0.00 0.00 0.00 76 1018.3
20260905210241 70 329 1.0 2.0 0.00 0.00 0.00 75 1018.2
20260905205741 70 329 0.0 2.0 0.00 0.00 0.00 76 1018.2
20260905205232 70 329 1.0 3.0 0.00 0.00 0.00 77 1018.2
20260905204726 70 329 1.0 4.0 0.00 0.00 0.00 78 1018.1
20260905204249 70 329 3.0 4.0 0.00 0.00 0.00 79 1018.2
20260905203742 70 344 2.0 3.0 0.00 0.00 0.00 80 1018.1
20260905203242 70 344 1.0 3.0 0.00 0.00 0.00 81 1018.1
20260905202747 70 344 2.0 3.0 0.00 0.00 0.00 81 1018.1
20260905202241 70 344 2.0 3.0 0.00 0.00 0.00 82 1018.1
20260905201749 70 344 2.0 3.0 0.00 0.00 0.00 83 1018.0
20260905201239 71 344 2.0 3.0 0.00 0.00 0.00 84 1018.0
20260905200724 71 326 1.0 3.0 0.00 0.00 0.00 84 1018.0
20260905200243 71 326 2.0 3.0 0.00 0.00 0.00 84 1017.9
20260905195729 71 45 0.0 0.0 0.00 0.00 0.00 83 1017.9
20260905195242 72 45 0.0 0.0 0.00 0.00 0.00 83 1017.8
20260905194741 72 45 0.0 0.0 0.00 0.00 0.00 83 1017.9
20260905194308 72 45 0.0 0.0 0.00 0.00 0.00 83 1017.7
20260905193725 72 45 0.0 0.0 0.00 0.00 0.00 83 1017.6
20260905193240 73 46 0.0 0.0 0.00 0.00 0.00 82 1017.6
20260905192749 73 46 0.0 0.0 0.00 0.00 0.00 82 1017.6
20260905192238 73 46 0.0 0.0 0.00 0.00 0.00 82 1017.5
20260905191751 74 46 0.0 2.0 0.00 0.00 0.00 81 1017.5
20260905191304 74 44 0.0 2.0 0.00 0.00 0.00 81 1017.4
20260905190752 74 40 0.0 2.0 0.00 0.00 0.00 80 1017.4
20260905190254 75 311 0.0 4.0 0.00 0.00 0.00 80 1017.2
20260905185726 75 311 2.0 4.0 0.00 0.00 0.00 80 1017.2
20260905185300 75 355 2.0 4.0 0.00 0.00 0.00 79 1017.1
20260905184735 75 309 2.0 4.0 0.00 0.00 0.00 79 1017.1
20260905184225 75 36 1.0 5.0 0.00 0.00 0.00 79 1017.0
20260905183809 76 344 2.0 5.0 0.00 0.00 0.00 79 1017.0
20260905183231 76 316 0.0 2.0 0.00 0.00 0.00 79 1016.9
20260905182801 77 316 0.0 2.0 0.00 0.00 0.00 78 1016.8
20260905182250 77 316 0.0 2.0 0.00 0.00 0.00 77 1016.7
20260905181742 78 316 0.0 2.0 0.00 0.00 0.00 77 1016.6
20260905181304 78 316 0.0 3.0 0.00 0.00 0.00 75 1016.6
20260905180725 79 316 1.0 3.0 0.00 0.00 0.00 74 1016.6
20260905180240 79 316 2.0 3.0 0.00 0.00 0.00 73 1016.6
20260905175751 79 316 1.0 3.0 0.00 0.00 0.00 73 1016.6
20260905175300 80 282 1.0 3.0 0.00 0.00 0.00 72 1016.6
20260905174747 81 282 1.0 2.0 0.00 0.00 0.00 71 1016.4
20260905174240 82 282 0.0 0.0 0.00 0.00 0.00 72 1016.5
20260905173748 83 282 0.0 0.0 0.00 0.00 0.00 71 1016.3
20260905173246 83 282 0.0 0.0 0.00 0.00 0.00 69 1016.3
20260905172737 84 282 0.0 0.0 0.00 0.00 0.00 68 1016.3
20260905172226 84 282 0.0 2.0 0.00 0.00 0.00 67 1016.2
20260905171735 85 282 0.0 3.0 0.00 0.00 0.00 66 1016.1
20260905171234 85 281 1.0 3.0 0.00 0.00 0.00 65 1016.2
20260905170725 85 136 2.0 3.0 0.00 0.00 0.00 66 1016.3
20260905170251 85 360 2.0 4.0 0.00 0.00 0.00 65 1016.2
20260905165740 86 134 2.0 4.0 0.00 0.00 0.00 65 1016.2
20260905165245 87 181 2.0 4.0 0.00 0.00 0.00 63 1016.2
20260905164736 86 184 2.0 3.0 0.00 0.00 0.00 60 1016.2
20260905164231 86 197 2.0 3.0 0.00 0.00 0.00 57 1016.1
20260905163726 86 219 1.0 3.0 0.00 0.00 0.00 58 1016.1
20260905163248 87 219 2.0 3.0 0.00 0.00 0.00 58 1016.0
20260905162736 87 207 1.0 4.0 0.00 0.00 0.00 57 1016.0
20260905162223 87 200 1.0 4.0 0.00 0.00 0.00 56 1016.0
20260905161747 87 209 1.0 4.0 0.00 0.00 0.00 58 1016.0
20260905161225 87 15 1.0 5.0 0.00 0.00 0.00 56 1016.0
20260905160803 88 19 3.0 4.0 0.00 0.00 0.00 57 1016.1
20260905160248 88 161 1.0 5.0 0.00 0.00 0.00 56 1016.0
20260905155740 88 154 2.0 8.0 0.00 0.00 0.00 55 1016.0
20260905155307 88 163 4.0 8.0 0.00 0.00 0.00 56 1015.9
20260905154730 88 165 3.0 5.0 0.00 0.00 0.00 57 1015.9
20260905154227 88 184 2.0 4.0 0.00 0.00 0.00 57 1015.8
20260905153732 87 184 2.0 4.0 0.00 0.00 0.00 58 1015.9
20260905153245 87 181 2.0 4.0 0.00 0.00 0.00 56 1015.9
20260905152802 88 168 2.0 5.0 0.00 0.00 0.00 55 1015.9
20260905152251 88 174 3.0 6.0 0.00 0.00 0.00 55 1016.0
20260905151743 88 171 4.0 6.0 0.00 0.00 0.00 53 1015.9
20260905151305 88 170 3.0 5.0 0.00 0.00 0.00 52 1016.0
20260905150724 89 189 3.0 5.0 0.00 0.00 0.00 52 1016.0
20260905150242 89 194 2.0 5.0 0.00 0.00 0.00 53 1016.0
20260905145750 89 166 3.0 7.0 0.00 0.00 0.00 52 1015.9
20260905145243 89 162 4.0 8.0 0.00 0.00 0.00 51 1015.9
20260905144749 89 184 2.0 7.0 0.00 0.00 0.00 52 1015.9
20260905144242 89 169 4.0 7.0 0.00 0.00 0.00 53 1016.0
20260905143751 89 181 4.0 7.0 0.00 0.00 0.00 52 1015.9
20260905143232 89 177 6.0 7.0 0.00 0.00 0.00 50 1015.9
20260905142724 89 188 3.0 8.0 0.00 0.00 0.00 51 1015.9
20260905142231 89 192 3.0 8.0 0.00 0.00 0.00 54 1015.9
20260905141800 89 167 4.0 9.0 0.00 0.00 0.00 53 1016.0
20260905141237 89 175 6.0 9.0 0.00 0.00 0.00 52 1016.0
20260905140726 89 163 6.0 8.0 0.00 0.00 0.00 52 1016.0
20260905140251 89 171 6.0 8.0 0.00 0.00 0.00 52 1016.2
20260905135737 90 171 5.0 9.0 0.00 0.00 0.00 54 1016.2
20260905135251 90 169 4.0 7.0 0.00 0.00 0.00 54 1016.2
20260905134800 90 143 1.0 4.0 0.00 0.00 0.00 53 1016.1
20260905134242 89 121 1.0 7.0 0.00 0.00 0.00 52 1016.0
20260905133729 90 169 4.0 8.0 0.00 0.00 0.00 50 1016.1
20260905133311 90 170 3.0 8.0 0.00 0.00 0.00 51 1016.3
20260905132746 89 179 3.0 8.0 0.00 0.00 0.00 54 1016.4
20260905132243 89 155 3.0 9.0 0.00 0.00 0.00 50 1016.5
20260905131750 89 148 5.0 9.0 0.00 0.00 0.00 51 1016.5
20260905131225 89 168 4.0 7.0 0.00 0.00 0.00 51 1016.5
20260905130733 89 192 4.0 8.0 0.00 0.00 0.00 51 1016.5
20260905130226 89 163 5.0 8.0 0.00 0.00 0.00 51 1016.6
20260905125741 89 192 3.0 8.0 0.00 0.00 0.00 53 1016.6
20260905125240 88 180 4.0 9.0 0.00 0.00 0.00 51 1016.6
20260905124747 88 159 4.0 9.0 0.00 0.00 0.00 53 1016.6
20260905124243 88 196 3.0 8.0 0.00 0.00 0.00 54 1016.6
20260905123734 88 169 4.0 7.0 0.00 0.00 0.00 52 1016.6
20260905123236 87 181 4.0 7.0 0.00 0.00 0.00 55 1016.7
20260905122737 87 111 4.0 7.0 0.00 0.00 0.00 55 1016.7
20260905122230 87 188 3.0 8.0 0.00 0.00 0.00 56 1016.8
20260905121730 87 157 4.0 9.0 0.00 0.00 0.00 54 1017.0
20260905121234 87 193 4.0 10.0 0.00 0.00 0.00 56 1016.9
20260905120733 86 175 3.0 10.0 0.00 0.00 0.00 58 1017.0
20260905120242 87 168 4.0 7.0 0.00 0.00 0.00 55 1017.0
20260905115751 86 149 3.0 8.0 0.00 0.00 0.00 55 1017.1
20260905115306 86 162 4.0 8.0 0.00 0.00 0.00 53 1017.1
20260905114745 86 124 4.0 9.0 0.00 0.00 0.00 56 1017.1
20260905114233 86 146 4.0 9.0 0.00 0.00 0.00 58 1017.2
20260905113727 86 138 4.0 9.0 0.00 0.00 0.00 59 1017.2
20260905113224 85 171 5.0 7.0 0.00 0.00 0.00 58 1017.1
20260905112809 85 151 4.0 7.0 0.00 0.00 0.00 60 1017.1